HULIANWANG DIGUI-125

Last updated on Fri Dec 19 2025 00:02:10 GMT+0000 (Coordinated Universal Time)

1 67065U 25295G 25352.58962214 .00000170 00000+0 13732-3 0 9997 2 67065 50.0011 347.5165 0012275 273.6220 86.3290 14.25953200 956
UTC large
Height (km)
Speed (km/s)
/
Latitude / Longitude
Inclination (degrees)
Orbital Period (minutes)
Azimuth
Elevation
Range (km)
Doppler Factor

Next 0 passes for location: London (51.5072 / 0.1276)

Sorry there are no passes over London.